Tracking 27420 objects as of 28-May-2023
HD Live streaming from Space Station
objects crossing your sky now

STARLINK-1283

Track STARLINK-1283 now!
10-day predictions
STARLINK-1283 is classified as:


NORAD ID: 45389
Int'l Code: 2020-019AF
Perigee: 553.4 km
Apogee: 555.4 km
Inclination: 53.1 °
Period: 95.6 minutes
Semi major axis: 6925 km
RCS: Unknown
Launch date: March 18, 2020
Source: United States (US)
Launch site: AIR FORCE EASTERN TEST RANGE (AFETR)
Your satellite tracking list
Your tracking list is empty




NASA's NSSDC Master Catalog

Two Line Element Set (TLE):
1 45389U 20019AF  23147.94597727 -.00002715  00000-0 -16349-3 0  9991
2 45389  53.0545  30.9601 0001421 102.0437 258.0711 15.06394825176761
Source of the keplerian elements: AFSPC